Time,TemperatureF,DewpointF,PressureIn,WindDirection,WindDirectionDegrees,WindSpeedMPH,WindSpeedGustMPH,Humidity,HourlyPrecipIn,Conditions,Clouds,dailyrainin,SoftwareType,DateUTC
2013-11-15 00:00:00,48.4,16.0,0.00,WSW,254,9.8,13.6,27,0.00,,,0.00,VWS V15.00,2013-11-15 05:00:00,
2013-11-15 00:01:00,48.4,16.0,0.00,West,259,9.4,9.8,27,0.00,,,0.00,VWS V14.01,2013-11-15 05:01:00,
2013-11-15 00:06:00,48.2,15.8,0.00,West,265,8.0,9.8,27,0.00,,,0.00,VWS V14.01,2013-11-15 05:06:00,
2013-11-15 00:11:00,48.0,16.5,0.00,WSW,252,5.8,9.8,28,0.00,,,0.00,VWS V14.01,2013-11-15 05:11:00,
2013-11-15 00:16:00,47.7,16.2,0.00,SW,231,5.3,9.8,28,0.00,,,0.00,VWS V14.01,2013-11-15 05:16:00,
2013-11-15 00:21:00,47.5,16.0,0.00,WSW,244,5.3,9.8,28,0.00,,,0.00,VWS V14.01,2013-11-15 05:21:00,
2013-11-15 00:26:00,47.5,16.8,0.00,WSW,241,6.7,9.8,29,0.00,,,0.00,VWS V14.01,2013-11-15 05:26:00,
2013-11-15 00:31:00,47.7,17.0,0.00,WSW,256,10.0,10.5,29,0.00,,,0.00,VWS V14.01,2013-11-15 05:31:00,
2013-11-15 00:36:00,48.2,16.6,0.00,WSW,250,8.0,10.5,28,0.00,,,0.00,VWS V14.01,2013-11-15 05:36:00,
2013-11-15 00:41:00,48.4,16.8,0.00,WSW,258,8.0,10.5,28,0.00,,,0.00,VWS V14.01,2013-11-15 05:41:00,
2013-11-15 00:46:00,48.4,16.8,0.00,West,259,9.4,10.5,28,0.00,,,0.00,VWS V14.01,2013-11-15 05:46:00,
2013-11-15 00:51:00,48.4,16.8,0.00,WSW,251,8.0,12.7,28,0.00,,,0.00,VWS V14.01,2013-11-15 05:51:00,
2013-11-15 00:56:00,48.4,16.8,0.00,West,275,9.4,12.7,28,0.00,,,0.00,VWS V14.01,2013-11-15 05:56:00,
2013-11-15 01:00:00,48.4,16.8,0.00,SSW,213,7.6,12.7,28,0.00,,,0.00,VWS V15.00,2013-11-15 06:00:00,
2013-11-15 01:01:00,48.4,16.8,0.00,West,261,7.6,8.0,28,0.00,,,0.00,VWS V14.01,2013-11-15 06:01:00,
2013-11-15 01:06:00,48.2,16.6,0.00,WSW,256,9.4,9.4,28,0.00,,,0.00,VWS V14.01,2013-11-15 06:06:00,
2013-11-15 01:11:00,48.0,16.5,0.00,WSW,252,7.1,9.4,28,0.00,,,0.00,VWS V14.01,2013-11-15 06:11:00,
2013-11-15 01:16:00,47.8,16.3,0.00,WSW,253,4.4,9.4,28,0.00,,,0.00,VWS V14.01,2013-11-15 06:16:00,
2013-11-15 01:21:00,47.8,17.1,0.00,WSW,255,8.0,9.4,29,0.00,,,0.00,VWS V14.01,2013-11-15 06:21:00,
2013-11-15 01:26:00,47.8,17.1,0.00,West,264,8.0,9.8,29,0.00,,,0.00,VWS V14.01,2013-11-15 06:26:00,
2013-11-15 01:31:00,48.0,17.3,0.00,West,265,9.4,10.0,29,0.00,,,0.00,VWS V14.01,2013-11-15 06:31:00,
2013-11-15 01:36:00,48.0,17.3,0.00,WSW,257,6.7,10.0,29,0.00,,,0.00,VWS V14.01,2013-11-15 06:36:00,
2013-11-15 01:41:00,47.8,17.1,0.00,WSW,256,8.9,10.0,29,0.00,,,0.00,VWS V14.01,2013-11-15 06:41:00,
2013-11-15 01:46:00,47.8,17.1,0.00,West,260,5.8,10.0,29,0.00,,,0.00,VWS V14.01,2013-11-15 06:46:00,
2013-11-15 01:51:00,48.0,17.3,0.00,WSW,253,8.0,10.0,29,0.00,,,0.00,VWS V14.01,2013-11-15 06:51:00,
2013-11-15 01:56:00,48.0,17.3,0.00,West,259,7.6,10.0,29,0.00,,,0.00,VWS V14.01,2013-11-15 06:56:00,
2013-11-15 02:00:00,47.8,17.1,0.00,WSW,254,8.0,10.0,29,0.00,,,0.00,VWS V15.00,2013-11-15 07:00:00,
2013-11-15 02:01:00,47.8,17.1,0.00,WSW,256,5.3,8.0,29,0.00,,,0.00,VWS V14.01,2013-11-15 07:01:00,
2013-11-15 02:06:00,47.8,17.1,0.00,WSW,251,7.1,8.0,29,0.00,,,0.00,VWS V14.01,2013-11-15 07:06:00,
2013-11-15 02:11:00,47.8,17.9,0.00,West,262,5.8,8.0,30,0.00,,,0.00,VWS V14.01,2013-11-15 07:11:00,
2013-11-15 02:16:00,47.8,17.9,0.00,West,261,4.9,8.0,30,0.00,,,0.00,VWS V14.01,2013-11-15 07:16:00,
2013-11-15 02:21:00,47.7,17.8,0.00,WSW,255,5.8,8.0,30,0.00,,,0.00,VWS V14.01,2013-11-15 07:21:00,
2013-11-15 02:26:00,47.5,17.6,0.00,West,259,6.7,8.0,30,0.00,,,0.00,VWS V14.01,2013-11-15 07:26:00,
2013-11-15 02:31:00,47.5,18.4,0.00,WSW,246,4.9,8.0,31,0.00,,,0.00,VWS V14.01,2013-11-15 07:31:00,
2013-11-15 02:36:00,47.5,18.4,0.00,WSW,252,5.3,8.0,31,0.00,,,0.00,VWS V14.01,2013-11-15 07:36:00,
2013-11-15 02:41:00,47.5,19.1,0.00,WSW,250,5.3,8.0,32,0.00,,,0.00,VWS V14.01,2013-11-15 07:41:00,
2013-11-15 02:46:00,47.7,20.0,0.00,West,260,8.0,8.0,33,0.00,,,0.00,VWS V14.01,2013-11-15 07:46:00,
2013-11-15 02:51:00,47.8,20.9,0.00,WSW,251,8.5,9.4,34,0.00,,,0.00,VWS V14.01,2013-11-15 07:51:00,
2013-11-15 02:56:00,48.0,21.0,0.00,WSW,254,7.1,9.4,34,0.00,,,0.00,VWS V14.01,2013-11-15 07:56:00,
2013-11-15 03:00:00,48.0,21.7,0.00,WSW,253,5.8,9.4,35,0.00,,,0.00,VWS V15.00,2013-11-15 08:00:00,
2013-11-15 03:01:00,48.0,21.7,0.00,West,276,4.4,5.8,35,0.00,,,0.00,VWS V14.01,2013-11-15 08:01:00,
2013-11-15 03:06:00,48.0,23.0,0.00,WSW,257,4.9,5.8,37,0.00,,,0.00,VWS V14.01,2013-11-15 08:06:00,
2013-11-15 03:11:00,48.0,23.0,0.00,West,274,7.6,7.6,37,0.00,,,0.00,VWS V14.01,2013-11-15 08:11:00,
2013-11-15 03:16:00,48.2,23.2,0.00,WSW,255,7.1,10.0,37,0.00,,,0.00,VWS V14.01,2013-11-15 08:16:00,
2013-11-15 03:21:00,48.4,23.3,0.00,West,263,7.6,10.0,37,0.00,,,0.00,VWS V14.01,2013-11-15 08:21:00,
2013-11-15 03:26:00,48.4,23.3,0.00,WSW,252,9.4,10.0,37,0.00,,,0.00,VWS V14.01,2013-11-15 08:26:00,
2013-11-15 03:31:00,48.4,23.3,0.00,WSW,240,7.1,10.0,37,0.00,,,0.00,VWS V14.01,2013-11-15 08:31:00,
2013-11-15 03:36:00,48.6,23.5,0.00,West,261,10.5,10.5,37,0.00,,,0.00,VWS V14.01,2013-11-15 08:36:00,
2013-11-15 03:41:00,48.6,23.5,0.00,WSW,249,11.8,12.3,37,0.00,,,0.00,VWS V14.01,2013-11-15 08:41:00,
2013-11-15 03:46:00,48.7,23.0,0.00,WSW,251,10.0,12.3,36,0.00,,,0.00,VWS V14.01,2013-11-15 08:46:00,
2013-11-15 03:51:00,48.7,22.3,0.00,WSW,246,10.0,12.3,35,0.00,,,0.00,VWS V14.01,2013-11-15 08:51:00,
2013-11-15 03:56:00,48.7,22.3,0.00,West,265,10.0,12.3,35,0.00,,,0.00,VWS V14.01,2013-11-15 08:56:00,
2013-11-15 04:00:00,48.2,18.2,0.00,WSW,257,10.0,12.3,30,0.00,,SKC,0.00,VWS V15.00,2013-11-15 09:00:00,
2013-11-15 04:01:00,48.7,22.3,0.00,WSW,251,9.8,12.3,35,0.00,,,0.00,VWS V14.01,2013-11-15 09:01:00,
2013-11-15 04:06:00,48.7,21.6,0.00,West,260,9.4,12.3,34,0.00,,,0.00,VWS V14.01,2013-11-15 09:06:00,
2013-11-15 04:11:00,48.7,21.6,0.00,West,263,9.8,12.3,34,0.00,,,0.00,VWS V14.01,2013-11-15 09:11:00,
2013-11-15 04:16:00,48.7,20.2,0.00,WSW,254,9.8,12.3,32,0.00,,,0.00,VWS V14.01,2013-11-15 09:16:00,
2013-11-15 04:21:00,48.7,19.5,0.00,WSW,257,8.0,12.3,31,0.00,,,0.00,VWS V14.01,2013-11-15 09:21:00,
2013-11-15 04:26:00,48.6,18.5,0.00,WSW,245,9.4,12.3,30,0.00,,,0.00,VWS V14.01,2013-11-15 09:26:00,
2013-11-15 04:31:00,48.6,19.3,0.00,WSW,240,9.4,12.3,31,0.00,,,0.00,VWS V14.01,2013-11-15 09:31:00,
2013-11-15 04:36:00,48.4,18.4,0.00,WSW,254,10.0,12.3,30,0.00,,,0.00,VWS V14.01,2013-11-15 09:36:00,
2013-11-15 04:41:00,48.4,18.4,0.00,WSW,256,9.8,12.3,30,0.00,,,0.00,VWS V14.01,2013-11-15 09:41:00,
2013-11-15 04:46:00,48.2,18.2,0.00,WSW,251,10.0,12.3,30,0.00,,,0.00,VWS V14.01,2013-11-15 09:46:00,
2013-11-15 04:51:00,48.2,18.2,0.00,WSW,248,10.5,12.3,30,0.00,,,0.00,VWS V14.01,2013-11-15 09:51:00,
2013-11-15 04:56:00,48.2,17.5,0.00,WSW,253,10.9,12.3,29,0.00,,,0.00,VWS V14.01,2013-11-15 09:56:00,
2013-11-15 05:00:00,48.2,17.5,0.00,WSW,256,9.4,10.5,29,0.00,,,0.00,VWS V14.01,2013-11-15 10:00:00,
2013-11-15 05:05:00,48.0,18.1,0.00,WSW,253,9.8,10.5,30,0.00,,,0.00,VWS V14.01,2013-11-15 10:05:00,
2013-11-15 05:10:00,48.0,17.3,0.00,WSW,246,9.4,10.5,29,0.00,,,0.00,VWS V14.01,2013-11-15 10:10:00,
2013-11-15 05:15:00,48.0,17.3,0.00,West,263,9.8,11.8,29,0.00,,,0.00,VWS V14.01,2013-11-15 10:15:00,
2013-11-15 05:20:00,47.8,17.1,0.00,WSW,252,7.6,11.8,29,0.00,,,0.00,VWS V14.01,2013-11-15 10:20:00,
2013-11-15 05:25:00,47.8,17.1,0.00,WSW,255,7.6,11.8,29,0.00,,,0.00,VWS V14.01,2013-11-15 10:25:00,
2013-11-15 05:30:00,47.7,17.0,0.00,WSW,244,8.0,11.8,29,0.00,,,0.00,VWS V14.01,2013-11-15 10:30:00,
2013-11-15 05:35:00,47.5,16.8,0.00,WSW,251,8.0,11.8,29,0.00,,,0.00,VWS V14.01,2013-11-15 10:35:00,
2013-11-15 05:40:00,47.3,16.7,0.00,SW,231,9.4,11.8,29,0.00,,,0.00,VWS V14.01,2013-11-15 10:40:00,
2013-11-15 05:45:00,47.3,16.7,0.00,West,259,7.6,11.8,29,0.00,,,0.00,VWS V14.01,2013-11-15 10:45:00,
2013-11-15 05:50:00,47.1,16.5,0.00,WSW,256,7.6,11.8,29,0.00,,,0.00,VWS V14.01,2013-11-15 10:50:00,
2013-11-15 05:55:00,46.9,16.4,0.00,WSW,254,8.0,11.8,29,0.00,,,0.00,VWS V14.01,2013-11-15 10:55:00,
2013-11-15 06:00:00,46.9,16.4,0.00,WSW,257,8.5,8.5,29,0.00,,,0.00,VWS V14.01,2013-11-15 11:00:00,
2013-11-15 06:05:00,46.8,16.2,0.00,WSW,255,7.6,9.4,29,0.00,,,0.00,VWS V14.01,2013-11-15 11:05:00,
2013-11-15 06:10:00,46.8,16.2,0.00,WSW,252,7.6,9.4,29,0.00,,,0.00,VWS V14.01,2013-11-15 11:10:00,
2013-11-15 06:15:00,46.6,16.0,0.00,WSW,242,7.1,9.4,29,0.00,,,0.00,VWS V14.01,2013-11-15 11:15:00,
2013-11-15 06:20:00,46.6,16.0,0.00,WSW,256,7.1,9.4,29,0.00,,,0.00,VWS V14.01,2013-11-15 11:20:00,
2013-11-15 06:25:00,46.6,15.2,0.00,SSW,213,5.8,9.4,28,0.00,,,0.00,VWS V14.01,2013-11-15 11:25:00,
2013-11-15 06:30:00,46.2,15.7,0.00,WSW,239,4.9,9.4,29,0.00,,,0.00,VWS V14.01,2013-11-15 11:30:00,
2013-11-15 06:35:00,46.0,15.6,0.00,SW,214,4.0,9.4,29,0.00,,,0.00,VWS V14.01,2013-11-15 11:35:00,
2013-11-15 06:40:00,45.7,15.3,0.00,SSW,208,1.8,9.4,29,0.00,,,0.00,VWS V14.01,2013-11-15 11:40:00,
2013-11-15 06:45:00,45.3,14.9,0.00,South,190,4.4,9.4,29,0.00,,,0.00,VWS V14.01,2013-11-15 11:45:00,
2013-11-15 06:50:00,45.3,15.7,0.00,WSW,247,4.0,9.4,30,0.00,,,0.00,VWS V14.01,2013-11-15 11:50:00,
2013-11-15 06:55:00,45.3,15.7,0.00,SW,220,4.0,9.4,30,0.00,,,0.00,VWS V14.01,2013-11-15 11:55:00,
2013-11-15 07:00:00,45.7,16.0,0.00,SW,219,5.8,7.1,30,0.00,,,0.00,VWS V14.01,2013-11-15 12:00:00,
2013-11-15 07:05:00,46.0,16.4,0.00,WSW,248,5.3,7.1,30,0.00,,,0.00,VWS V14.01,2013-11-15 12:05:00,
2013-11-15 07:10:00,46.4,16.7,0.00,West,263,6.7,8.0,30,0.00,,,0.00,VWS V14.01,2013-11-15 12:10:00,
2013-11-15 07:15:00,46.8,17.0,0.00,West,264,1.8,8.0,30,0.00,,,0.00,VWS V14.01,2013-11-15 12:15:00,
2013-11-15 07:20:00,47.1,17.3,0.00,WSW,245,1.8,8.0,30,0.00,,,0.00,VWS V14.01,2013-11-15 12:20:00,
2013-11-15 07:25:00,47.7,18.5,0.00,WSW,253,7.6,8.0,31,0.00,,,0.00,VWS V14.01,2013-11-15 12:25:00,
2013-11-15 07:30:00,47.8,19.4,0.00,WSW,256,7.1,9.4,32,0.00,,,0.00,VWS V14.01,2013-11-15 12:30:00,
2013-11-15 07:35:00,48.2,19.7,0.00,WSW,247,9.4,9.4,32,0.00,,,0.00,VWS V14.01,2013-11-15 12:35:00,
2013-11-15 07:40:00,48.6,20.1,0.00,WSW,257,7.1,9.4,32,0.00,,,0.00,VWS V14.01,2013-11-15 12:40:00,
2013-11-15 07:45:00,48.7,20.2,0.00,West,278,5.3,9.4,32,0.00,,,0.00,VWS V14.01,2013-11-15 12:45:00,
2013-11-15 07:50:00,48.9,19.6,0.00,WSW,246,6.7,9.4,31,0.00,,,0.00,VWS V14.01,2013-11-15 12:50:00,
2013-11-15 07:55:00,49.1,19.8,0.00,WSW,244,5.8,9.4,31,0.00,,,0.00,VWS V14.01,2013-11-15 12:55:00,
2013-11-15 08:00:00,49.3,19.9,0.00,West,262,9.8,9.8,31,0.00,,,0.00,VWS V14.01,2013-11-15 13:00:00,
2013-11-15 08:05:00,49.5,20.1,0.00,SW,231,6.7,9.8,31,0.00,,,0.00,VWS V14.01,2013-11-15 13:05:00,
2013-11-15 08:10:00,49.6,20.3,0.00,West,260,5.8,9.8,31,0.00,,,0.00,VWS V14.01,2013-11-15 13:10:00,
2013-11-15 08:15:00,49.8,20.4,0.00,WSW,255,7.1,9.8,31,0.00,,,0.00,VWS V14.01,2013-11-15 13:15:00,
2013-11-15 08:20:00,49.8,20.4,0.00,WSW,240,7.1,9.8,31,0.00,,,0.00,VWS V14.01,2013-11-15 13:20:00,
2013-11-15 08:25:00,50.0,20.6,0.00,WSW,257,7.1,9.8,31,0.00,,,0.00,VWS V14.01,2013-11-15 13:25:00,
2013-11-15 08:30:00,50.0,21.3,0.00,SW,229,5.3,9.8,32,0.00,,,0.00,VWS V14.01,2013-11-15 13:30:00,
2013-11-15 08:35:00,49.8,21.2,0.00,SW,230,7.1,9.8,32,0.00,,,0.00,VWS V14.01,2013-11-15 13:35:00,
2013-11-15 08:40:00,49.6,21.0,0.00,WSW,239,5.8,9.8,32,0.00,,,0.00,VWS V14.01,2013-11-15 13:40:00,
2013-11-15 08:45:00,49.6,21.0,0.00,West,259,7.6,9.8,32,0.00,,,0.00,VWS V14.01,2013-11-15 13:45:00,
2013-11-15 08:50:00,49.6,21.0,0.00,WSW,251,8.0,9.8,32,0.00,,,0.00,VWS V14.01,2013-11-15 13:50:00,
2013-11-15 08:55:00,49.8,21.2,0.00,WSW,256,8.0,9.8,32,0.00,,,0.00,VWS V14.01,2013-11-15 13:55:00,
2013-11-15 09:00:00,50.0,21.3,0.00,West,263,5.8,9.8,32,0.00,,,0.00,VWS V14.01,2013-11-15 14:00:00,
2013-11-15 09:05:00,50.2,21.5,0.00,WSW,248,5.3,9.8,32,0.00,,,0.00,VWS V14.01,2013-11-15 14:05:00,
2013-11-15 09:10:00,50.2,21.5,0.00,West,262,6.7,9.8,32,0.00,,,0.00,VWS V14.01,2013-11-15 14:10:00,
2013-11-15 09:15:00,50.5,22.5,0.00,WSW,254,6.7,9.8,33,0.00,,,0.00,VWS V14.01,2013-11-15 14:15:00,
2013-11-15 09:20:00,50.9,22.8,0.00,SW,233,5.8,9.8,33,0.00,,,0.00,VWS V14.01,2013-11-15 14:20:00,
2013-11-15 09:25:00,51.1,23.7,0.00,WSW,254,7.6,9.8,34,0.00,,,0.00,VWS V14.01,2013-11-15 14:25:00,
2013-11-15 09:30:00,51.1,23.7,0.00,SW,216,6.7,9.8,34,0.00,,,0.00,VWS V14.01,2013-11-15 14:30:00,
2013-11-15 09:35:00,51.3,24.6,0.00,SW,231,6.7,9.8,35,0.00,,,0.00,VWS V14.01,2013-11-15 14:35:00,
2013-11-15 09:40:00,51.6,25.6,0.00,WSW,253,5.3,9.8,36,0.00,,,0.00,VWS V14.01,2013-11-15 14:40:00,
2013-11-15 09:45:00,52.0,25.9,0.00,SW,222,7.6,9.8,36,0.00,,,0.00,VWS V14.01,2013-11-15 14:45:00,
2013-11-15 09:50:00,52.2,26.0,0.00,SW,217,8.0,9.8,36,0.00,,,0.00,VWS V14.01,2013-11-15 14:50:00,
2013-11-15 09:55:00,52.2,26.0,0.00,SW,234,8.0,9.8,36,0.00,,,0.00,VWS V14.01,2013-11-15 14:55:00,
2013-11-15 10:00:00,52.5,26.4,0.00,WSW,247,7.1,7.6,36,0.00,,,0.00,VWS V14.01,2013-11-15 15:00:00,
2013-11-15 10:05:00,52.7,26.5,0.00,SSW,208,5.8,8.5,36,0.00,,,0.00,VWS V14.01,2013-11-15 15:05:00,
2013-11-15 10:10:00,53.1,26.8,0.00,SSW,200,8.0,9.8,36,0.00,,,0.00,VWS V14.01,2013-11-15 15:10:00,
2013-11-15 10:15:00,53.2,26.3,0.00,SW,222,8.0,9.8,35,0.00,,,0.00,VWS V14.01,2013-11-15 15:15:00,
2013-11-15 10:20:00,53.4,26.5,0.00,WSW,254,8.9,9.8,35,0.00,,,0.00,VWS V14.01,2013-11-15 15:20:00,
2013-11-15 10:25:00,53.4,25.8,0.00,WSW,243,7.1,9.8,34,0.00,,,0.00,VWS V14.01,2013-11-15 15:25:00,
2013-11-15 10:30:00,53.4,25.8,0.00,WSW,254,7.6,10.0,34,0.00,,,0.00,VWS V14.01,2013-11-15 15:30:00,
2013-11-15 10:35:00,53.4,25.8,0.00,WSW,250,7.6,10.0,34,0.00,,,0.00,VWS V14.01,2013-11-15 15:35:00,
2013-11-15 10:40:00,53.6,25.9,0.00,West,259,7.1,10.0,34,0.00,,,0.00,VWS V14.01,2013-11-15 15:40:00,
2013-11-15 10:45:00,53.8,25.4,0.00,SW,229,7.6,10.0,33,0.00,,,0.00,VWS V14.01,2013-11-15 15:45:00,
2013-11-15 10:50:00,54.0,25.5,0.00,WSW,258,8.0,10.0,33,0.00,,,0.00,VWS V14.01,2013-11-15 15:50:00,
2013-11-15 10:55:00,54.1,25.0,0.00,WSW,258,8.0,10.0,32,0.00,,,0.00,VWS V14.01,2013-11-15 15:55:00,
2013-11-15 11:00:00,54.1,25.0,0.00,SW,235,7.1,10.0,32,0.00,,,0.00,VWS V14.01,2013-11-15 16:00:00,
2013-11-15 11:05:00,54.1,24.2,0.00,WSW,247,7.1,10.5,31,0.00,,,0.00,VWS V14.01,2013-11-15 16:05:00,
2013-11-15 11:10:00,53.8,23.9,0.00,SW,235,8.0,10.5,31,0.00,,,0.00,VWS V14.01,2013-11-15 16:10:00,
2013-11-15 11:15:00,53.6,24.5,0.00,WSW,239,7.1,10.5,32,0.00,,,0.00,VWS V14.01,2013-11-15 16:15:00,
2013-11-15 11:20:00,53.6,25.2,0.00,WSW,238,7.6,10.5,33,0.00,,,0.00,VWS V14.01,2013-11-15 16:20:00,
2013-11-15 11:25:00,54.0,25.5,0.00,SW,226,7.1,10.5,33,0.00,,,0.00,VWS V14.01,2013-11-15 16:25:00,
2013-11-15 11:30:00,54.1,25.7,0.00,SW,225,6.7,10.5,33,0.00,,,0.00,VWS V14.01,2013-11-15 16:30:00,
2013-11-15 11:35:00,54.3,25.9,0.00,WSW,251,7.6,10.5,33,0.00,,,0.00,VWS V14.01,2013-11-15 16:35:00,
2013-11-15 11:40:00,54.3,25.9,0.00,WSW,251,5.3,10.5,33,0.00,,,0.00,VWS V14.01,2013-11-15 16:40:00,
2013-11-15 11:45:00,54.3,25.9,0.00,West,268,5.3,10.5,33,0.00,,,0.00,VWS V14.01,2013-11-15 16:45:00,
2013-11-15 11:50:00,54.3,25.9,0.00,SW,222,6.7,10.5,33,0.00,,,0.00,VWS V14.01,2013-11-15 16:50:00,
2013-11-15 11:55:00,54.3,25.9,0.00,West,268,5.8,10.5,33,0.00,,,0.00,VWS V14.01,2013-11-15 16:55:00,
2013-11-15 12:00:00,54.5,26.0,0.00,SW,221,6.7,10.5,33,0.00,,,0.00,VWS V14.01,2013-11-15 17:00:00,
2013-11-15 12:05:00,54.5,26.0,0.00,WSW,244,5.3,10.5,33,0.00,,,0.00,VWS V14.01,2013-11-15 17:05:00,
2013-11-15 12:10:00,54.7,26.9,0.00,West,260,5.8,10.5,34,0.00,,,0.00,VWS V14.01,2013-11-15 17:10:00,
2013-11-15 12:15:00,54.7,26.9,0.00,SW,236,5.3,10.5,34,0.00,,,0.00,VWS V14.01,2013-11-15 17:15:00,
2013-11-15 12:20:00,54.9,27.8,0.00,SW,229,4.4,10.5,35,0.00,,,0.00,VWS V14.01,2013-11-15 17:20:00,
2013-11-15 12:25:00,55.2,28.1,0.00,WSW,245,4.4,10.5,35,0.00,,,0.00,VWS V14.01,2013-11-15 17:25:00,
2013-11-15 12:30:00,55.4,28.2,0.00,WSW,240,5.8,10.5,35,0.00,,,0.00,VWS V14.01,2013-11-15 17:30:00,
2013-11-15 12:35:00,55.2,28.1,0.00,WSW,255,8.0,10.5,35,0.00,,,0.00,VWS V14.01,2013-11-15 17:35:00,
2013-11-15 12:40:00,55.2,28.1,0.00,West,260,5.8,10.5,35,0.00,,,0.00,VWS V14.01,2013-11-15 17:40:00,
2013-11-15 12:45:00,55.2,28.1,0.00,WSW,249,5.8,10.5,35,0.00,,,0.00,VWS V14.01,2013-11-15 17:45:00,
2013-11-15 12:50:00,55.2,28.1,0.00,WSW,258,5.3,10.5,35,0.00,,,0.00,VWS V14.01,2013-11-15 17:50:00,
2013-11-15 12:55:00,55.4,28.2,0.00,SW,222,4.4,10.5,35,0.00,,,0.00,VWS V14.01,2013-11-15 17:55:00,
2013-11-15 13:00:00,55.8,28.5,0.00,WNW,294,5.8,5.8,35,0.00,,,0.00,VWS V14.01,2013-11-15 18:00:00,
2013-11-15 13:05:00,55.9,28.7,0.00,WSW,251,7.6,7.6,35,0.00,,,0.00,VWS V14.01,2013-11-15 18:05:00,
2013-11-15 13:10:00,56.3,29.0,0.00,SW,226,5.8,8.0,35,0.00,,,0.00,VWS V14.01,2013-11-15 18:10:00,
2013-11-15 13:15:00,56.3,29.0,0.00,SW,223,7.1,8.0,35,0.00,,,0.00,VWS V14.01,2013-11-15 18:15:00,
2013-11-15 13:20:00,55.9,28.7,0.00,SW,218,6.7,8.9,35,0.00,,,0.00,VWS V14.01,2013-11-15 18:20:00,
2013-11-15 13:25:00,55.8,28.5,0.00,WSW,255,5.8,8.9,35,0.00,,,0.00,VWS V14.01,2013-11-15 18:25:00,
2013-11-15 13:30:00,56.1,29.5,0.00,WSW,245,5.3,9.4,36,0.00,,,0.00,VWS V14.01,2013-11-15 18:30:00,
2013-11-15 13:35:00,56.1,29.5,0.00,WSW,242,6.7,9.4,36,0.00,,,0.00,VWS V14.01,2013-11-15 18:35:00,
2013-11-15 13:40:00,55.9,29.4,0.00,SW,223,7.6,9.4,36,0.00,,,0.00,VWS V14.01,2013-11-15 18:40:00,
2013-11-15 13:45:00,55.8,29.2,0.00,WSW,246,5.8,9.8,36,0.00,,,0.00,VWS V14.01,2013-11-15 18:45:00,
2013-11-15 13:50:00,55.4,28.9,0.00,WSW,250,7.6,10.0,36,0.00,,,0.00,VWS V14.01,2013-11-15 18:50:00,
2013-11-15 13:55:00,54.9,28.4,0.00,WSW,240,5.3,10.0,36,0.00,,,0.00,VWS V14.01,2013-11-15 18:55:00,
2013-11-15 14:00:00,54.7,28.3,0.00,SW,220,6.7,6.7,36,0.00,,,0.00,VWS V14.01,2013-11-15 19:00:00,
2013-11-15 14:05:00,54.5,28.8,0.00,SW,222,8.0,9.4,37,0.00,,,0.00,VWS V14.01,2013-11-15 19:05:00,
2013-11-15 14:10:00,54.7,28.9,0.00,WSW,239,9.4,10.5,37,0.00,,,0.00,VWS V14.01,2013-11-15 19:10:00,
2013-11-15 14:15:00,55.2,29.4,0.00,SW,231,8.0,10.5,37,0.00,,,0.00,VWS V14.01,2013-11-15 19:15:00,
2013-11-15 14:20:00,55.8,29.9,0.00,SW,223,7.1,10.5,37,0.00,,,0.00,VWS V14.01,2013-11-15 19:20:00,
2013-11-15 14:25:00,56.3,30.4,0.00,SW,221,8.5,10.5,37,0.00,,,0.00,VWS V14.01,2013-11-15 19:25:00,
2013-11-15 14:30:00,56.7,30.7,0.00,SW,217,7.1,10.5,37,0.00,,,0.00,VWS V14.01,2013-11-15 19:30:00,
2013-11-15 14:35:00,57.2,30.5,0.00,SW,217,8.0,10.5,36,0.00,,,0.00,VWS V14.01,2013-11-15 19:35:00,
2013-11-15 14:40:00,57.4,30.7,0.00,SW,219,7.1,10.5,36,0.00,,,0.00,VWS V14.01,2013-11-15 19:40:00,
2013-11-15 14:45:00,57.6,30.8,0.00,SW,236,7.1,10.5,36,0.00,,,0.00,VWS V14.01,2013-11-15 19:45:00,
2013-11-15 14:50:00,57.4,30.7,0.00,SW,222,7.1,10.5,36,0.00,,,0.00,VWS V14.01,2013-11-15 19:50:00,
2013-11-15 14:55:00,57.2,29.8,0.00,SW,229,6.7,10.5,35,0.00,,,0.00,VWS V14.01,2013-11-15 19:55:00,
2013-11-15 15:00:00,57.0,30.4,0.00,WSW,244,7.6,7.6,36,0.00,,,0.00,VWS V14.01,2013-11-15 20:00:00,
2013-11-15 15:05:00,56.7,30.0,0.00,SW,218,6.7,9.8,36,0.00,,,0.00,VWS V14.01,2013-11-15 20:05:00,
2013-11-15 15:10:00,56.5,29.9,0.00,SSW,203,1.8,9.8,36,0.00,,,0.00,VWS V14.01,2013-11-15 20:10:00,
2013-11-15 15:15:00,56.1,29.5,0.00,WSW,237,7.1,9.8,36,0.00,,,0.00,VWS V14.01,2013-11-15 20:15:00,
2013-11-15 15:20:00,55.6,29.1,0.00,SW,214,7.1,10.0,36,0.00,,,0.00,VWS V14.01,2013-11-15 20:20:00,
2013-11-15 15:25:00,54.7,28.3,0.00,SSW,199,5.3,10.0,36,0.00,,,0.00,VWS V14.01,2013-11-15 20:25:00,
2013-11-15 15:30:00,54.0,27.6,0.00,South,171,5.8,10.0,36,0.00,,,0.00,VWS V14.01,2013-11-15 20:30:00,
2013-11-15 15:35:00,53.6,28.0,0.00,SW,218,6.7,10.0,37,0.00,,,0.00,VWS V14.01,2013-11-15 20:35:00,
2013-11-15 15:40:00,53.4,28.5,0.00,West,273,6.7,10.0,38,0.00,,,0.00,VWS V14.01,2013-11-15 20:40:00,
2013-11-15 15:45:00,53.1,28.1,0.00,SSW,199,10.0,10.0,38,0.00,,,0.00,VWS V14.01,2013-11-15 20:45:00,
2013-11-15 15:50:00,53.1,28.1,0.00,SW,232,5.3,10.0,38,0.00,,,0.00,VWS V14.01,2013-11-15 20:50:00,
2013-11-15 15:55:00,53.1,28.1,0.00,SSW,193,6.2,10.5,38,0.00,,,0.00,VWS V14.01,2013-11-15 20:55:00,
2013-11-15 16:00:00,52.9,28.6,0.00,WSW,237,9.8,11.8,39,0.00,,,0.00,VWS V14.01,2013-11-15 21:00:00,
2013-11-15 16:05:00,52.5,28.9,0.00,SSW,206,7.6,11.8,40,0.00,,,0.00,VWS V14.01,2013-11-15 21:05:00,
2013-11-15 16:10:00,52.3,28.8,0.00,SSW,203,7.1,11.8,40,0.00,,,0.00,VWS V14.01,2013-11-15 21:10:00,
2013-11-15 16:15:00,52.2,29.2,0.00,SW,214,10.5,13.6,41,0.00,,,0.00,VWS V14.01,2013-11-15 21:15:00,
2013-11-15 16:20:00,51.8,30.0,0.00,SSW,195,10.5,14.1,43,0.00,,,0.00,VWS V14.01,2013-11-15 21:20:00,
2013-11-15 16:25:00,51.6,30.4,0.00,SW,216,7.1,14.1,44,0.00,,,0.00,VWS V14.01,2013-11-15 21:25:00,
2013-11-15 16:30:00,51.6,32.1,0.00,SSW,197,5.8,14.1,47,0.00,,,0.00,VWS V14.01,2013-11-15 21:30:00,
2013-11-15 16:35:00,51.6,32.6,0.00,SSW,204,10.0,14.1,48,0.00,,,0.00,VWS V14.01,2013-11-15 21:35:00,
2013-11-15 16:40:00,51.4,32.9,0.00,WSW,245,7.6,14.1,49,0.00,,,0.00,VWS V14.01,2013-11-15 21:40:00,
2013-11-15 16:45:00,51.3,33.3,0.00,SW,233,7.1,14.1,50,0.00,,,0.00,VWS V14.01,2013-11-15 21:45:00,
2013-11-15 16:50:00,51.1,33.1,0.00,WSW,243,7.6,14.1,50,0.00,,,0.00,VWS V14.01,2013-11-15 21:50:00,
2013-11-15 16:55:00,51.1,33.6,0.00,WSW,237,7.1,14.1,51,0.00,,,0.00,VWS V14.01,2013-11-15 21:55:00,
2013-11-15 17:00:00,50.9,34.4,0.00,SSW,210,10.0,14.1,53,0.00,,,0.00,VWS V14.01,2013-11-15 22:00:00,
2013-11-15 17:05:00,50.7,34.2,0.00,SW,233,5.8,10.5,53,0.00,,,0.00,VWS V14.01,2013-11-15 22:05:00,
2013-11-15 17:10:00,50.7,34.7,0.00,SW,234,7.1,10.5,54,0.00,,,0.00,VWS V14.01,2013-11-15 22:10:00,
2013-11-15 17:15:00,50.7,35.6,0.00,WSW,252,5.8,10.5,56,0.00,,,0.00,VWS V14.01,2013-11-15 22:15:00,
2013-11-15 17:20:00,50.7,35.6,0.00,SW,218,5.8,10.5,56,0.00,,,0.00,VWS V14.01,2013-11-15 22:20:00,
2013-11-15 17:25:00,50.7,36.1,0.00,SW,226,4.9,10.5,57,0.00,,,0.00,VWS V14.01,2013-11-15 22:25:00,
2013-11-15 17:30:00,50.5,35.9,0.00,WSW,240,6.7,10.5,57,0.00,,,0.00,VWS V14.01,2013-11-15 22:30:00,
2013-11-15 17:35:00,50.5,36.3,0.00,SW,231,8.0,10.5,58,0.00,,,0.00,VWS V14.01,2013-11-15 22:35:00,
2013-11-15 17:40:00,50.5,36.3,0.00,SW,219,5.8,10.5,58,0.00,,,0.00,VWS V14.01,2013-11-15 22:40:00,
2013-11-15 17:45:00,50.4,36.6,0.00,West,264,7.6,10.5,59,0.00,,,0.00,VWS V14.01,2013-11-15 22:45:00,
2013-11-15 17:50:00,50.4,36.6,0.00,WSW,257,5.8,10.5,59,0.00,,,0.00,VWS V14.01,2013-11-15 22:50:00,
2013-11-15 17:55:00,50.4,37.0,0.00,West,265,5.8,10.5,60,0.00,,,0.00,VWS V14.01,2013-11-15 22:55:00,
2013-11-15 18:00:00,50.4,37.0,0.00,SW,215,7.1,10.5,60,0.00,,,0.00,VWS V14.01,2013-11-15 23:00:00,
2013-11-15 18:05:00,50.4,37.4,0.00,WSW,247,4.4,7.6,61,0.00,,,0.00,VWS V14.01,2013-11-15 23:05:00,
2013-11-15 18:10:00,50.2,37.3,0.00,WSW,247,5.3,7.6,61,0.00,,,0.00,VWS V14.01,2013-11-15 23:10:00,
2013-11-15 18:15:00,50.4,37.4,0.00,SW,222,5.3,8.0,61,0.00,,,0.00,VWS V14.01,2013-11-15 23:15:00,
2013-11-15 18:20:00,50.4,37.8,0.00,SW,226,5.8,8.0,62,0.00,,,0.00,VWS V14.01,2013-11-15 23:20:00,
2013-11-15 18:25:00,50.4,37.8,0.00,WSW,240,4.9,8.0,62,0.00,,,0.00,VWS V14.01,2013-11-15 23:25:00,
2013-11-15 18:30:00,50.2,37.7,0.00,SW,214,5.3,8.0,62,0.00,,,0.00,VWS V14.01,2013-11-15 23:30:00,
2013-11-15 18:35:00,50.2,37.7,0.00,SW,223,5.8,8.0,62,0.00,,,0.00,VWS V14.01,2013-11-15 23:35:00,
2013-11-15 18:40:00,50.0,37.5,0.00,WSW,237,4.9,8.0,62,0.00,,,0.00,VWS V14.01,2013-11-15 23:40:00,
2013-11-15 18:45:00,50.0,37.5,0.00,SSW,199,6.7,8.0,62,0.00,,,0.00,VWS V14.01,2013-11-15 23:45:00,
2013-11-15 18:50:00,49.8,37.8,0.00,SSW,210,5.3,8.0,63,0.00,,,0.00,VWS V14.01,2013-11-15 23:50:00,
2013-11-15 18:55:00,49.6,37.6,0.00,SW,218,1.8,8.0,63,0.00,,,0.00,VWS V14.01,2013-11-15 23:55:00,
2013-11-15 19:00:00,49.5,37.4,0.00,SW,214,5.8,8.0,63,0.00,,,0.00,VWS V14.01,2013-11-16 00:00:00,
2013-11-15 19:05:00,49.5,37.4,0.00,SW,214,5.3,8.0,63,0.00,,,0.00,VWS V14.01,2013-11-16 00:05:00,
2013-11-15 19:10:00,49.5,37.4,0.00,SW,223,6.7,10.5,63,0.00,,,0.00,VWS V14.01,2013-11-16 00:10:00,
2013-11-15 19:15:00,49.5,37.8,0.00,SSW,195,5.3,10.5,64,0.00,,,0.00,VWS V14.01,2013-11-16 00:15:00,
2013-11-15 19:20:00,49.5,37.8,0.00,WSW,243,7.1,10.5,64,0.00,,,0.00,VWS V14.01,2013-11-16 00:20:00,
2013-11-15 19:25:00,49.5,37.8,0.00,SW,219,7.1,10.5,64,0.00,,,0.00,VWS V14.01,2013-11-16 00:25:00,
2013-11-15 19:30:00,49.5,38.2,0.00,SW,223,7.1,10.5,65,0.00,,,0.00,VWS V14.01,2013-11-16 00:30:00,
2013-11-15 19:35:00,49.5,38.2,0.00,West,263,5.8,10.5,65,0.00,,,0.00,VWS V14.01,2013-11-16 00:35:00,
2013-11-15 19:40:00,49.6,38.4,0.00,SW,217,5.8,10.5,65,0.00,,,0.00,VWS V14.01,2013-11-16 00:40:00,
2013-11-15 19:45:00,49.5,38.6,0.00,SSW,202,7.6,10.5,66,0.00,,,0.00,VWS V14.01,2013-11-16 00:45:00,
2013-11-15 19:50:00,49.5,38.6,0.00,South,190,5.8,10.5,66,0.00,,,0.00,VWS V14.01,2013-11-16 00:50:00,
2013-11-15 19:55:00,49.5,38.6,0.00,SW,221,6.7,10.5,66,0.00,,,0.00,VWS V14.01,2013-11-16 00:55:00,
2013-11-15 20:00:00,49.5,38.6,0.00,SW,221,6.2,10.5,66,0.00,,,0.00,VWS V14.01,2013-11-16 01:00:00,
2013-11-15 20:05:00,49.5,38.6,0.00,SW,222,5.3,8.0,66,0.00,,,0.00,VWS V14.01,2013-11-16 01:05:00,
2013-11-15 20:10:00,49.5,38.6,0.00,WSW,239,5.8,8.9,66,0.00,,,0.00,VWS V14.01,2013-11-16 01:10:00,
2013-11-15 20:15:00,49.5,38.6,0.00,SW,233,7.6,8.9,66,0.00,,,0.00,VWS V14.01,2013-11-16 01:15:00,
2013-11-15 20:20:00,49.6,39.2,0.00,SSW,212,7.1,8.9,67,0.00,,,0.00,VWS V14.01,2013-11-16 01:20:00,
2013-11-15 20:25:00,49.6,39.2,0.00,SW,219,4.9,8.9,67,0.00,,,0.00,VWS V14.01,2013-11-16 01:25:00,
2013-11-15 20:30:00,49.6,39.2,0.00,SW,229,8.0,8.9,67,0.00,,,0.00,VWS V14.01,2013-11-16 01:30:00,
2013-11-15 20:35:00,49.8,39.7,0.00,SW,224,4.9,8.9,68,0.00,,,0.00,VWS V14.01,2013-11-16 01:35:00,
2013-11-15 20:40:00,49.8,39.3,0.00,SSW,211,4.9,8.9,67,0.00,,,0.00,VWS V14.01,2013-11-16 01:40:00,
2013-11-15 20:45:00,49.6,39.2,0.00,SW,232,4.9,8.9,67,0.00,,,0.00,VWS V14.01,2013-11-16 01:45:00,
2013-11-15 20:50:00,49.6,39.2,0.00,WSW,256,5.8,8.9,67,0.00,,,0.00,VWS V14.01,2013-11-16 01:50:00,
2013-11-15 20:55:00,49.8,39.7,0.00,SW,220,5.3,8.9,68,0.00,,,0.00,VWS V14.01,2013-11-16 01:55:00,
2013-11-15 21:00:00,49.8,39.7,0.00,SW,232,7.6,8.9,68,0.00,,,0.00,VWS V14.01,2013-11-16 02:00:00,
2013-11-15 21:04:00,49.8,39.7,0.00,West,260,4.9,8.0,68,0.00,,,0.00,VWS V14.01,2013-11-16 02:04:00,
2013-11-15 21:09:00,49.8,39.7,0.00,WSW,238,5.8,8.0,68,0.00,,,0.00,VWS V14.01,2013-11-16 02:09:00,
2013-11-15 21:14:00,49.8,39.7,0.00,SW,228,5.3,8.0,68,0.00,,,0.00,VWS V14.01,2013-11-16 02:14:00,
2013-11-15 21:19:00,49.8,39.7,0.00,West,262,7.1,8.0,68,0.00,,,0.00,VWS V14.01,2013-11-16 02:19:00,
2013-11-15 21:24:00,49.8,39.7,0.00,WSW,253,7.1,8.0,68,0.00,,,0.00,VWS V14.01,2013-11-16 02:24:00,
2013-11-15 21:29:00,49.8,40.1,0.00,WSW,258,7.1,8.0,69,0.00,,,0.00,VWS V14.01,2013-11-16 02:29:00,
2013-11-15 21:34:00,49.8,40.1,0.00,WSW,257,5.8,8.0,69,0.00,,,0.00,VWS V14.01,2013-11-16 02:34:00,
2013-11-15 21:39:00,49.6,39.9,0.00,WSW,256,7.1,8.0,69,0.00,,,0.00,VWS V14.01,2013-11-16 02:39:00,
2013-11-15 21:44:00,49.6,39.9,0.00,WSW,245,5.3,8.0,69,0.00,,,0.00,VWS V14.01,2013-11-16 02:44:00,
2013-11-15 21:49:00,49.6,40.3,0.00,WSW,256,6.7,8.0,70,0.00,,,0.00,VWS V14.01,2013-11-16 02:49:00,
2013-11-15 21:54:00,49.5,40.1,0.00,West,259,7.1,8.0,70,0.00,,,0.00,VWS V14.01,2013-11-16 02:54:00,
2013-11-15 21:59:00,49.3,39.9,0.00,SW,236,4.4,8.0,70,0.00,,,0.00,VWS V14.01,2013-11-16 02:59:00,
2013-11-15 22:00:00,49.3,39.9,0.00,WSW,240,5.3,8.0,70,0.00,,,0.00,VWS V15.00,2013-11-16 03:00:00,
2013-11-15 22:04:00,49.1,39.8,0.00,West,260,1.8,5.3,70,0.00,,,0.00,VWS V14.01,2013-11-16 03:04:00,
2013-11-15 22:09:00,48.9,39.2,0.00,WSW,253,1.8,5.3,69,0.00,,,0.00,VWS V14.01,2013-11-16 03:09:00,
2013-11-15 22:14:00,48.7,39.4,0.00,WSW,240,5.3,5.8,70,0.00,,,0.00,VWS V14.01,2013-11-16 03:14:00,
2013-11-15 22:19:00,48.7,39.4,0.00,WSW,257,4.4,5.8,70,0.00,,,0.00,VWS V14.01,2013-11-16 03:19:00,
2013-11-15 22:24:00,48.6,39.2,0.00,West,259,4.0,5.8,70,0.00,,,0.00,VWS V14.01,2013-11-16 03:24:00,
2013-11-15 22:29:00,48.6,39.2,0.00,West,259,1.8,5.8,70,0.00,,,0.00,VWS V14.01,2013-11-16 03:29:00,
2013-11-15 22:34:00,48.4,39.1,0.00,SW,235,1.8,5.8,70,0.00,,,0.00,VWS V14.01,2013-11-16 03:34:00,
2013-11-15 22:39:00,48.4,39.1,0.00,WSW,245,1.8,5.8,70,0.00,,,0.00,VWS V14.01,2013-11-16 03:39:00,
2013-11-15 22:44:00,48.6,39.6,0.00,WSW,245,1.8,5.8,71,0.00,,,0.00,VWS V14.01,2013-11-16 03:44:00,
2013-11-15 22:49:00,48.6,39.6,0.00,WSW,254,1.8,5.8,71,0.00,,,0.00,VWS V14.01,2013-11-16 03:49:00,
2013-11-15 22:54:00,48.6,39.6,0.00,WSW,256,1.8,5.8,71,0.00,,,0.00,VWS V14.01,2013-11-16 03:54:00,
2013-11-15 22:59:00,48.7,39.8,0.00,West,260,5.8,5.8,71,0.00,,,0.00,VWS V14.01,2013-11-16 03:59:00,
2013-11-15 23:00:00,48.7,39.8,0.00,West,259,5.8,5.8,71,0.00,,,0.00,VWS V15.00,2013-11-16 04:00:00,
2013-11-15 23:04:00,48.7,39.8,0.00,WSW,258,5.3,5.8,71,0.00,,,0.00,VWS V14.01,2013-11-16 04:04:00,
2013-11-15 23:09:00,48.7,40.1,0.00,West,259,4.9,7.1,72,0.00,,,0.00,VWS V14.01,2013-11-16 04:09:00,
2013-11-15 23:14:00,48.7,40.1,0.00,WSW,258,1.8,7.1,72,0.00,,,0.00,VWS V14.01,2013-11-16 04:14:00,
2013-11-15 23:19:00,48.7,40.1,0.00,SSW,210,1.8,7.1,72,0.00,,,0.00,VWS V14.01,2013-11-16 04:19:00,
2013-11-15 23:24:00,48.7,40.1,0.00,WSW,245,1.8,7.1,72,0.00,,,0.00,VWS V14.01,2013-11-16 04:24:00,
2013-11-15 23:29:00,48.6,40.0,0.00,WSW,254,1.8,7.1,72,0.00,,,0.00,VWS V14.01,2013-11-16 04:29:00,
2013-11-15 23:34:00,48.6,40.0,0.00,WSW,254,1.8,7.1,72,0.00,,,0.00,VWS V14.01,2013-11-16 04:34:00,
2013-11-15 23:39:00,48.6,40.0,0.00,WSW,255,1.8,7.1,72,0.00,,,0.00,VWS V14.01,2013-11-16 04:39:00,
2013-11-15 23:44:00,48.6,40.0,0.00,West,259,1.8,7.1,72,0.00,,,0.00,VWS V14.01,2013-11-16 04:44:00,
2013-11-15 23:49:00,48.6,40.0,0.00,WSW,250,5.8,7.1,72,0.00,,,0.00,VWS V14.01,2013-11-16 04:49:00,
2013-11-15 23:54:00,48.6,40.3,0.00,WSW,255,5.3,7.1,73,0.00,,,0.00,VWS V14.01,2013-11-16 04:54:00,
2013-11-15 23:59:00,48.7,40.5,0.00,WSW,258,5.3,7.1,73,0.00,,,0.00,VWS V14.01,2013-11-16 04:59:00,